• Join FlightAware (Why Join?)
  • Login
  • US Flag 
10:15PM EST


 

Airport Tracker/Info


-or-


 

Live Flight TrackerFlight Track Log ✈ SWA943 ✈ 17-Oct-2013 ✈ KSAN - KSFO

Flight Track Log - Related Links

Times and Time Zones

All times are in EDT time to prevent confusion due to time zone crossing. See the SWA943 flight status page for this flight to view local times or setup timezone preferences in your user account.

Time Position Orientation Groundspeed Altitude Reporting Facility
EDT Latitude Longitude Course Direction KTS MPH feet Rate Location/Type
03:35PM 32.7483 -117.2289 303° West 154 177 2,300  Level Los Angeles Center
03:36PM 32.7789 -117.2844 303° West 189 217 5,000 3,145 Climbing Los Angeles Center
03:37PM 32.8250 -117.3450 312° West 254 292 8,800 3,435 Climbing Los Angeles Center
03:38PM 32.8778 -117.4172 311° West 280 322 12,100 3,774 Climbing Los Angeles Center
03:39PM 32.9517 -117.5200 311° West 334 384 16,600 3,387 Climbing Los Angeles Center
03:40PM 33.0169 -117.6086 311° West 350 403 19,100 2,112 Climbing Los Angeles Center
03:41PM 33.0828 -117.7000 311° West 360 414 21,000 1,776 Climbing Los Angeles Center
03:42PM 33.1492 -117.7919 311° West 364 419 22,800 1,113 Climbing Los Angeles Center
03:43PM 33.2031 -117.8969 302° West 371 427 23,300 1,984 Climbing Los Angeles Center
03:44PM 33.2811 -118.0169 308° West 379 436 26,900 2,806 Climbing Los Angeles Center
03:45PM 33.3522 -118.1156 311° West 387 445 29,100 2,129 Climbing Los Angeles Center
03:47PM 33.4314 -118.2292 310° West 406 467 31,300 2,274 Climbing Los Angeles Center
03:48PM 33.5014 -118.3267 311° West 413 475 33,800 2,256 Climbing Los Angeles Center
03:49PM 33.5756 -118.4325 310° West 409 471 36,000 1,824 Climbing Los Angeles Center
03:50PM 33.6503 -118.5383 310° West 409 471 37,600 1,403 Climbing Los Angeles Center
03:51PM 33.7258 -118.6436 311° West 411 473 38,900 774 Climbing Los Angeles Center
03:53PM 33.8925 -118.8819 310° West 422 486 40,000 355 Climbing Los Angeles Center
03:54PM 33.9703 -118.9914 311° West 427 491 40,000  Level Los Angeles Center
03:55PM 34.0439 -119.0989 310° West 419 482 40,000  Level Los Angeles Center
03:56PM 34.1186 -119.2075 310° West 421 484 40,000  Level Los Angeles Center
03:57PM 34.1931 -119.3147 310° West 418 481 40,000  Level Los Angeles Center
03:58PM 34.2681 -119.4239 310° West 420 483 40,000  Level Los Angeles Center
03:59PM 34.3592 -119.5550 310° West 424 488 40,000  Level Los Angeles Center
04:00PM 34.4342 -119.6664 309° West 428 493 40,000  Level Los Angeles Center
04:01PM 34.5122 -119.7769 311° West 432 497 40,000  Level Los Angeles Center
04:02PM 34.6058 -119.8794 318° Northwest 432 497 40,000  Level Los Angeles Center
04:03PM 34.6969 -119.9753 319° Northwest 432 497 40,000  Level Los Angeles Center
04:04PM 34.7864 -120.0725 318° Northwest 429 494 40,000  Level Los Angeles Center
04:05PM 34.8792 -120.1756 318° Northwest 433 498 40,000  Level Los Angeles Center
04:06PM 34.9667 -120.2728 318° Northwest 431 496 40,000  Level Los Angeles Center
04:07PM 35.0733 -120.3908 318° Northwest 433 498 40,000  Level Los Angeles Center
04:08PM 35.1625 -120.4875 318° Northwest 433 498 40,000  Level Los Angeles Center
04:09PM 35.2486 -120.5850 317° Northwest 427 491 40,000  Level Los Angeles Center
04:10PM 35.3375 -120.6842 318° Northwest 435 501 40,000  Level Los Angeles Center
04:11PM 35.4256 -120.7836 317° Northwest 436 502 40,000  Level Los Angeles Center
04:12PM 35.5417 -120.8864 324° Northwest 432 497 40,000  Level Los Angeles Center
04:13PM 35.6278 -120.9611 325° Northwest 434 499 40,000  Level Oakland Center
04:14PM 35.7258 -121.0467 325° Northwest 432 497 40,000  Level Oakland Center
04:15PM 35.8239 -121.1331 324° Northwest 433 498 40,000 -780 Level Oakland Center
04:16PM 35.9214 -121.2186 325° Northwest 430 495 38,400 -2,098 Descending Oakland Center
04:17PM 36.0175 -121.3058 324° Northwest 430 495 35,700 -2,488 Descending Oakland Center
04:18PM 36.1144 -121.3906 325° Northwest 427 491 33,300 -2,293 Descending Oakland Center
04:19PM 36.2233 -121.4869 324° Northwest 402 463 31,000 -2,146 Descending Oakland Center
04:20PM 36.3078 -121.5653 323° Northwest 382 440 28,900 -2,032 Descending Oakland Center
04:22PM 36.3914 -121.6394 324° Northwest 371 427 26,800 -2,049 Descending Oakland Center
04:23PM 36.4714 -121.7133 323° Northwest 361 415 24,700 -2,075 Descending Oakland Center
04:23PM 36.5333 -121.7667 325° Northwest 349 402 23,100 -1,980 Descending Northern Cal TRACON
04:24PM 36.6000 -121.8333 321° Northwest 339 390 21,400 -1,632 Descending Northern Cal TRACON
04:25PM 36.6833 -121.9000 327° Northwest 332 382 20,000 -700 Descending Northern Cal TRACON
04:26PM 36.7500 -121.9667 321° Northwest 333 383 20,000  Level Northern Cal TRACON
04:27PM 36.8500 -122.0000 345° North 332 382 20,000 -1,333 Level Northern Cal TRACON
04:28PM 36.9500 -122.0167 352° North 354 407 17,200 -3,750 Descending Northern Cal TRACON
04:29PM 37.0500 -122.0500 345° North 382 440 12,500 -3,550 Descending Northern Cal TRACON
04:30PM 37.1500 -122.0667 352° North 354 407 10,100 -1,700 Descending Northern Cal TRACON
04:31PM 37.2333 -122.1000 342° North 285 328 9,100 -1,400 Descending Northern Cal TRACON
04:32PM 37.3167 -122.1167 351° North 275 316 7,300 -1,733 Descending Northern Cal TRACON
04:33PM 37.3431 -122.1236 348° North 274 315 6,500 -1,300 Descending Oakland Center
04:33PM 37.3833 -122.1333 349° North 268 308 6,000 -787 Descending Northern Cal TRACON
04:34PM 37.4153 -122.1419 348° North 268 308 5,700 -516 Descending Oakland Center
04:35PM 37.4792 -122.1597 348° North 246 283 5,200 -683 Descending Oakland Center
04:36PM 37.5294 -122.1933 332° Northwest 212 244 4,300 -1,024 Descending Oakland Center
04:37PM 37.5589 -122.2367 311° West 183 211 3,100 -1,366 Descending Oakland Center
04:38PM 37.5794 -122.2797 301° West 160 184 1,500 -1,220 Descending Oakland Center
04:39PM 37.5967 -122.3228 297° West 148 170 600 -585 Descending Oakland Center
04:40PM 37.6158 -122.3681 298° West 141 162 300 -295 Descending Oakland Center
04:42PM 37.6167 -122.3667 322° Northwest  Level FlightAware Approximate